Location: Vernon
(50.2670°N, 119.2670°W)
Time: 14:50:31
(UTC-07:00)

X-37B - Visible Passes

Search period start: 24 June 2021 00:00
Search period end: 04 July 2021 00:00
Orbit: 386 x 389 km, 45.0° (Epoch: 23 June)

Date Brightness Start Highest point End Pass type
(mag) Time Alt. Az. Time Alt. Az. Time Alt. Az.
24 Jun 3.1 00:23:55 10° WSW 00:24:12 12° WSW 00:24:12 12° WSW visible
24 Jun 1.4 23:25:42 10° WSW 23:28:33 30° S 23:28:56 29° SSE visible
25 Jun 1.6 22:27:35 10° SW 22:30:19 27° S 22:33:04 10° ESE visible
26 Jun 2.0 00:03:42 10° WSW 00:05:30 24° SW 00:05:30 24° SW visible
26 Jun 1.4 23:05:26 10° WSW 23:08:18 31° S 23:09:34 23° SE visible
27 Jun 1.5 22:07:12 10° WSW 22:10:04 30° S 22:12:55 10° ESE visible
27 Jun 1.9 23:43:34 10° WSW 23:45:48 24° SSW 23:45:48 24° SSW visible
28 Jun 1.6 22:45:13 10° WSW 22:48:03 29° S 22:49:43 18° SE visible
29 Jun 2.2 23:23:33 10° WSW 23:25:52 20° SSW 23:25:52 20° SSW visible
30 Jun 1.9 22:25:05 10° WSW 22:27:47 25° SSW 22:29:46 14° SE visible
01 Jul 2.6 23:03:46 10° WSW 23:05:36 15° SSW 23:05:56 14° SSW visible
02 Jul 2.3 22:05:04 10° WSW 22:07:29 20° SSW 22:09:50 10° SSE visible
